TimeEET,TemperatureF,Dew PointF,Humidity,Sea Level PressureIn,VisibilityMPH,Wind Direction,Wind SpeedMPH,Gust SpeedMPH,PrecipitationIn,Events,Conditions,WindDirDegrees,DateUTC
12:50 AM,32.0,32.0,100,29.74,1.9,SSE,8.1,-,N/A,Snow,Light Snow,160,2012-12-03 22:50:00
1:50 AM,32.0,32.0,100,29.71,6.2,SSE,9.2,-,N/A,,Mostly Cloudy,150,2012-12-03 23:50:00
2:00 AM,33,31,89,,4,Calm,Calm,,,Snow,Heavy Snow,,2012-12-04 00:00:00
2:50 AM,32.0,30.2,93,29.71,1.9,SSE,6.9,-,N/A,Snow,Light Snow,150,2012-12-04 00:50:00
3:50 AM,30.2,30.2,100,29.68,1.9,ESE,8.1,-,N/A,Snow,Light Snow,120,2012-12-04 01:50:00
4:50 AM,30.2,30.2,100,29.65,1.9,ESE,8.1,-,N/A,Snow,Light Snow,110,2012-12-04 02:50:00
5:50 AM,30.2,30.2,100,29.62,0.6,ESE,9.2,-,N/A,Fog,Light Freezing Fog,120,2012-12-04 03:50:00
6:50 AM,32.0,30.2,93,29.62,0.4,ESE,10.4,-,N/A,Fog,Light Freezing Fog,120,2012-12-04 04:50:00
7:50 AM,32.0,32.0,100,29.62,3.1,SE,9.2,-,N/A,,Overcast,140,2012-12-04 05:50:00
8:00 AM,35,33,89,,9,NE,2.3,,,,Partly Cloudy,40,2012-12-04 06:00:00
8:50 AM,33.8,33.8,100,29.59,6.2,SE,13.8,-,N/A,,Mostly Cloudy,140,2012-12-04 06:50:00
9:50 AM,35.6,33.8,93,29.59,6.2,SE,16.1,-,N/A,,Mostly Cloudy,140,2012-12-04 07:50:00
10:50 AM,37.4,32.0,81,29.56,6.2,SSE,16.1,-,N/A,,Mostly Cloudy,150,2012-12-04 08:50:00
11:50 AM,37.4,32.0,81,29.50,6.2,SSE,20.7,-,N/A,,Mostly Cloudy,150,2012-12-04 09:50:00
12:50 PM,37.4,33.8,87,29.47,6.2,SSE,27.6,-,N/A,Rain,Light Rain Showers,160,2012-12-04 10:50:00
1:50 PM,37.4,33.8,87,29.44,6.2,SSE,24.2,-,N/A,Rain,Light Rain Showers,150,2012-12-04 11:50:00
2:00 PM,43,36,69,,6,SSE,5.8,,,Rain,Light Rain,150,2012-12-04 12:00:00
2:50 PM,35.6,33.8,93,29.42,6.2,SE,23.0,-,N/A,,Mostly Cloudy,140,2012-12-04 12:50:00
3:50 PM,37.4,33.8,87,29.44,5.0,SSE,16.1,-,N/A,,Mostly Cloudy,160,2012-12-04 13:50:00
4:50 PM,32.0,32.0,100,29.47,0.7,South,13.8,-,N/A,Rain-Snow,Light Rain,180,2012-12-04 14:50:00
6:50 PM,30.2,30.2,100,29.47,1.0,West,11.5,-,N/A,Snow,Light Snow,260,2012-12-04 16:50:00
7:50 PM,30.2,30.2,100,29.47,0.4,WSW,12.7,-,N/A,Snow,Light Snow,250,2012-12-04 17:50:00
8:00 PM,34,32,88,,6,West,2.3,,,Snow,Heavy Snow,280,2012-12-04 18:00:00
8:50 PM,30.2,28.4,93,29.50,-9999.0,West,12.7,-,N/A,Snow,Light Snow,260,2012-12-04 18:50:00
9:50 PM,30.2,28.4,93,29.50,0.3,West,10.4,-,N/A,Snow,Light Snow,260,2012-12-04 19:50:00
10:50 PM,30.2,28.4,93,29.53,1.6,West,12.7,-,N/A,Snow,Light Snow,260,2012-12-04 20:50:00
11:50 PM,30.2,28.4,93,29.53,0.7,West,13.8,-,N/A,Snow,Light Snow,260,2012-12-04 21:50:00